SKN2452 SABE-SACO

Flight info

Callsign SKN2452
Flight time 1h 36m
Altitude 34000
Route ATOVO UW5 ASISA
Aircraft A320/M-V/N

Departure

Time 2026-05-03 21:31
Airport Aeroparque Jorge Newbery (SABE)

Arrival

Time 2026-05-03 23:07
Airport Ingeniero Aeronáutico Ambrosio L.V. Taravella International Airport (SACO)
Time Latitude Longitude Altitude Speed Heading
2026-05-03 20:38 -34.55856 -58.41340 27 ft 0 kts 265°
2026-05-03 20:43 -34.55840 -58.41371 27 ft 0 kts 207°
2026-05-03 20:59 -34.55825 -58.41362 27 ft 2 kts 214°
2026-05-03 20:59 -34.55814 -58.41344 27 ft 2 kts 254°
2026-05-03 21:00 -34.55814 -58.41323 27 ft 2 kts 287°
2026-05-03 21:00 -34.55816 -58.41317 27 ft 2 kts 297°
2026-05-03 21:00 -34.55822 -58.41306 27 ft 0 kts 305°
2026-05-03 21:00 -34.55821 -58.41306 27 ft 0 kts 305°
2026-05-03 21:02 -34.55821 -58.41307 27 ft 0 kts 305°
2026-05-03 21:03 -34.55813 -58.41321 27 ft 4 kts 304°
2026-05-03 21:03 -34.55788 -58.41367 27 ft 8 kts 303°
2026-05-03 21:03 -34.55748 -58.41443 27 ft 12 kts 300°
2026-05-03 21:03 -34.55725 -58.41550 27 ft 14 kts 240°
2026-05-03 21:04 -34.55809 -58.41559 27 ft 15 kts 126°
2026-05-03 21:04 -34.55866 -58.41426 27 ft 17 kts 115°
2026-05-03 21:04 -34.55926 -58.41289 27 ft 17 kts 122°
2026-05-03 21:04 -34.55999 -58.41171 27 ft 17 kts 127°
2026-05-03 21:05 -34.56073 -58.41052 27 ft 17 kts 127°
2026-05-03 21:05 -34.56100 -58.41009 27 ft 0 kts 126°
2026-05-03 21:07 -34.56108 -58.40995 27 ft 3 kts 126°
2026-05-03 21:07 -34.56118 -58.40979 27 ft 4 kts 126°
2026-05-03 21:08 -34.56124 -58.40969 27 ft 4 kts 126°
2026-05-03 21:09 -34.56165 -58.40884 27 ft 0 kts 99°
2026-05-03 21:10 -34.56166 -58.40872 27 ft 3 kts 90°
2026-05-03 21:10 -34.56168 -58.40829 27 ft 5 kts 108°
2026-05-03 21:10 -34.56174 -58.40815 27 ft 1 kts 119°
2026-05-03 21:10 -34.56177 -58.40808 27 ft 0 kts 119°
2026-05-03 21:13 -34.56177 -58.40807 27 ft 0 kts 124°
2026-05-03 21:13 -34.56195 -58.40780 27 ft 6 kts 123°
2026-05-03 21:13 -34.56202 -58.40767 27 ft 0 kts 123°
2026-05-03 21:15 -34.56208 -58.40755 27 ft 6 kts 123°
2026-05-03 21:15 -34.56235 -58.40705 27 ft 0 kts 123°
2026-05-03 21:17 -34.56237 -58.40702 27 ft 3 kts 123°
2026-05-03 21:17 -34.56264 -58.40653 27 ft 0 kts 123°
2026-05-03 21:18 -34.56277 -58.40631 27 ft 7 kts 123°
2026-05-03 21:18 -34.56282 -58.40621 27 ft 2 kts 123°
2026-05-03 21:19 -34.56298 -58.40592 27 ft 8 kts 123°
2026-05-03 21:19 -34.56300 -58.40590 27 ft 0 kts 125°
2026-05-03 21:23 -34.56306 -58.40579 27 ft 3 kts 128°
2026-05-03 21:23 -34.56317 -58.40564 27 ft 0 kts 134°
2026-05-03 21:24 -34.56323 -58.40557 27 ft 5 kts 135°
2026-05-03 21:24 -34.56338 -58.40540 27 ft 0 kts 137°
2026-05-03 21:25 -34.56340 -58.40538 27 ft 3 kts 137°
2026-05-03 21:25 -34.56370 -58.40506 27 ft 0 kts 138°
2026-05-03 21:28 -34.56383 -58.40492 27 ft 6 kts 139°
2026-05-03 21:28 -34.56411 -58.40464 27 ft 0 kts 139°
2026-05-03 21:30 -34.56414 -58.40461 27 ft 3 kts 139°
2026-05-03 21:30 -34.56477 -58.40395 27 ft 10 kts 142°
2026-05-03 21:30 -34.56539 -58.40390 27 ft 9 kts 206°
2026-05-03 21:30 -34.56527 -58.40489 27 ft 14 kts 300°
2026-05-03 21:31 -34.56363 -58.40783 27 ft 76 kts 304°
2026-05-03 21:31 -34.55938 -58.41545 27 ft 138 kts 304°
2026-05-03 21:31 -34.55347 -58.42603 356 ft 155 kts 305°
2026-05-03 21:31 -34.54713 -58.43765 937 ft 161 kts 307°
2026-05-03 21:32 -34.54270 -58.44619 1426 ft 162 kts 308°
2026-05-03 21:32 -34.53093 -58.45645 2194 ft 162 kts 360°
2026-05-03 21:32 -34.52704 -58.45613 2367 ft 166 kts 12°
2026-05-03 21:33 -34.49665 -58.43285 3807 ft 208 kts 31°
2026-05-03 21:33 -34.48448 -58.42216 4290 ft 226 kts 31°
2026-05-03 21:33 -34.47028 -58.40976 4840 ft 244 kts 31°
2026-05-03 21:33 -34.45577 -58.39713 5379 ft 261 kts 31°
2026-05-03 21:34 -34.44087 -58.38421 6101 ft 269 kts 31°
2026-05-03 21:34 -34.42563 -58.37095 6922 ft 273 kts 31°
2026-05-03 21:34 -34.40936 -58.35792 7718 ft 276 kts 20°
2026-05-03 21:34 -34.39090 -58.35312 8492 ft 271 kts 353°
2026-05-03 21:35 -34.37310 -58.35894 9265 ft 269 kts 330°
2026-05-03 21:35 -34.35681 -58.37084 10004 ft 273 kts 323°
2026-05-03 21:35 -34.34067 -58.38397 10651 ft 284 kts 327°
2026-05-03 21:35 -34.32139 -58.39230 11047 ft 306 kts 345°
2026-05-03 21:36 -34.29987 -58.39643 11429 ft 325 kts 348°
2026-05-03 21:36 -34.27465 -58.40031 11811 ft 345 kts 349°
2026-05-03 21:36 -34.25008 -58.40396 12203 ft 362 kts 349°
2026-05-03 21:36 -34.22442 -58.40782 12603 ft 377 kts 349°
2026-05-03 21:37 -34.19826 -58.41174 13216 ft 383 kts 349°
2026-05-03 21:37 -34.17174 -58.41567 13872 ft 387 kts 349°
2026-05-03 21:37 -34.14450 -58.41961 14508 ft 392 kts 349°
2026-05-03 21:37 -34.11743 -58.42348 15166 ft 395 kts 349°
2026-05-03 21:38 -34.09018 -58.42727 15810 ft 398 kts 349°
2026-05-03 21:38 -34.07155 -58.42981 16218 ft 401 kts 349°
2026-05-03 21:38 -34.03453 -58.43521 17007 ft 404 kts 345°
2026-05-03 21:38 -34.00745 -58.44391 17574 ft 402 kts 335°
2026-05-03 21:39 -33.98297 -58.45927 18120 ft 397 kts 319°
2026-05-03 21:39 -33.96355 -58.48209 18699 ft 391 kts 302°
2026-05-03 21:39 -33.95068 -58.51037 19267 ft 386 kts 287°
2026-05-03 21:39 -33.94537 -58.54210 19818 ft 384 kts 270°
2026-05-03 21:40 -33.94710 -58.57393 20340 ft 386 kts 262°
2026-05-03 21:40 -33.95114 -58.60573 20835 ft 389 kts 258°
2026-05-03 21:40 -33.95715 -58.63773 21319 ft 392 kts 255°
2026-05-03 21:40 -33.96383 -58.66942 21819 ft 395 kts 255°
2026-05-03 21:41 -33.97063 -58.70156 22338 ft 397 kts 256°
2026-05-03 21:41 -33.97730 -58.73356 22847 ft 398 kts 256°
2026-05-03 21:41 -33.98390 -58.76567 23316 ft 401 kts 256°
2026-05-03 21:41 -33.99055 -58.79836 23779 ft 403 kts 256°
2026-05-03 21:42 -33.99720 -58.83120 24223 ft 405 kts 256°
2026-05-03 21:42 -34.00385 -58.86420 24673 ft 407 kts 256°
2026-05-03 21:42 -34.01049 -58.89726 25118 ft 409 kts 256°
2026-05-03 21:42 -34.01721 -58.93081 25453 ft 414 kts 256°
2026-05-03 21:43 -34.02398 -58.96466 25718 ft 419 kts 256°
2026-05-03 21:43 -34.03075 -58.99862 26086 ft 421 kts 256°
2026-05-03 21:43 -34.03759 -59.03305 26464 ft 422 kts 256°
2026-05-03 21:43 -34.04442 -59.06741 26817 ft 423 kts 256°
2026-05-03 21:44 -34.05046 -59.10207 27146 ft 426 kts 262°
2026-05-03 21:44 -34.04971 -59.13769 27526 ft 430 kts 276°
2026-05-03 21:44 -34.04104 -59.17192 27995 ft 435 kts 290°
2026-05-03 21:44 -34.02490 -59.20295 28459 ft 442 kts 303°
2026-05-03 21:45 -34.00531 -59.23137 28888 ft 441 kts 304°
2026-05-03 21:45 -33.98553 -59.25967 29231 ft 442 kts 304°
2026-05-03 21:45 -33.96574 -59.28797 29590 ft 442 kts 304°
2026-05-03 21:45 -33.94613 -59.31606 29975 ft 442 kts 304°
2026-05-03 21:46 -33.92639 -59.34434 30396 ft 440 kts 304°
2026-05-03 21:46 -33.90678 -59.37245 30837 ft 438 kts 303°
2026-05-03 21:46 -33.88719 -59.40055 31233 ft 437 kts 303°
2026-05-03 21:46 -33.86776 -59.42843 31604 ft 435 kts 303°
2026-05-03 21:47 -33.84851 -59.45602 31966 ft 434 kts 303°
2026-05-03 21:47 -33.82902 -59.48395 32303 ft 433 kts 303°
2026-05-03 21:47 -33.81000 -59.51116 32874 ft 426 kts 303°
2026-05-03 21:47 -33.79114 -59.53803 33623 ft 411 kts 302°
2026-05-03 21:48 -33.77308 -59.56379 34008 ft 405 kts 302°
2026-05-03 21:48 -33.75491 -59.58985 34054 ft 404 kts 302°
2026-05-03 21:48 -33.71907 -59.64119 34056 ft 402 kts 302°
2026-05-03 21:49 -33.68312 -59.69238 34055 ft 403 kts 303°
2026-05-03 21:49 -33.64671 -59.74397 34053 ft 404 kts 303°
2026-05-03 21:50 -33.61069 -59.79501 34048 ft 403 kts 303°
2026-05-03 21:50 -33.57429 -59.84651 34052 ft 404 kts 303°
2026-05-03 21:51 -33.53798 -59.89785 34052 ft 404 kts 303°
2026-05-03 21:51 -33.50175 -59.94899 34047 ft 404 kts 302°
2026-05-03 21:52 -33.46539 -60.00024 34044 ft 405 kts 303°
2026-05-03 21:52 -33.42897 -60.05151 34044 ft 405 kts 302°
2026-05-03 21:53 -33.39248 -60.10279 34043 ft 405 kts 302°
2026-05-03 21:53 -33.35627 -60.15363 34040 ft 404 kts 302°
2026-05-03 21:54 -33.31966 -60.20494 34048 ft 404 kts 303°
2026-05-03 21:54 -33.28316 -60.25604 34047 ft 404 kts 303°
2026-05-03 21:55 -33.24690 -60.30674 34048 ft 403 kts 303°
2026-05-03 21:55 -33.21043 -60.35763 34046 ft 404 kts 302°
2026-05-03 21:56 -33.17392 -60.40852 34049 ft 402 kts 303°
2026-05-03 21:56 -33.13758 -60.45915 34044 ft 404 kts 303°
2026-05-03 21:57 -33.10100 -60.51000 34045 ft 404 kts 303°
2026-05-03 21:57 -33.06465 -60.56049 34044 ft 403 kts 303°
2026-05-03 21:58 -33.02813 -60.61113 34042 ft 404 kts 303°
2026-05-03 21:58 -32.99152 -60.66181 34042 ft 405 kts 303°
2026-05-03 21:59 -32.95484 -60.71254 34042 ft 405 kts 304°
2026-05-03 21:59 -32.91862 -60.76373 34040 ft 402 kts 301°
2026-05-03 22:00 -32.88702 -60.81775 34037 ft 396 kts 295°
2026-05-03 22:00 -32.85914 -60.87391 34037 ft 394 kts 294°
2026-05-03 22:01 -32.83145 -60.92999 34035 ft 395 kts 294°
2026-05-03 22:01 -32.80378 -60.98597 34033 ft 394 kts 294°
2026-05-03 22:02 -32.77607 -61.04188 34030 ft 393 kts 294°
2026-05-03 22:02 -32.74821 -61.09801 34025 ft 394 kts 294°
2026-05-03 22:03 -32.72047 -61.15378 34023 ft 394 kts 294°
2026-05-03 22:03 -32.69272 -61.20953 34017 ft 394 kts 294°
2026-05-03 22:04 -32.66477 -61.26558 34019 ft 395 kts 294°
2026-05-03 22:04 -32.63699 -61.32127 34018 ft 393 kts 294°
2026-05-03 22:05 -32.60907 -61.37708 34017 ft 394 kts 294°
2026-05-03 22:05 -32.58119 -61.43272 34017 ft 394 kts 294°
2026-05-03 22:06 -32.55309 -61.48877 34017 ft 394 kts 294°
2026-05-03 22:06 -32.52517 -61.54431 34014 ft 394 kts 294°
2026-05-03 22:07 -32.49730 -61.59974 34014 ft 394 kts 294°
2026-05-03 22:07 -32.46925 -61.65541 34011 ft 394 kts 294°
2026-05-03 22:08 -32.44114 -61.71111 34009 ft 394 kts 294°
2026-05-03 22:08 -32.41299 -61.76685 34008 ft 393 kts 294°
2026-05-03 22:09 -32.38500 -61.82219 34009 ft 393 kts 294°
2026-05-03 22:10 -32.34304 -61.90494 34008 ft 393 kts 294°
2026-05-03 22:10 -32.31492 -61.96025 34006 ft 393 kts 294°
2026-05-03 22:11 -32.28669 -62.01576 34006 ft 394 kts 294°
2026-05-03 22:11 -32.25848 -62.07117 34003 ft 393 kts 294°
2026-05-03 22:12 -32.23046 -62.12610 34003 ft 393 kts 294°
2026-05-03 22:12 -32.20213 -62.18160 34001 ft 394 kts 294°
2026-05-03 22:13 -32.17397 -62.23663 34001 ft 394 kts 294°
2026-05-03 22:13 -32.14567 -62.29194 33999 ft 393 kts 294°
2026-05-03 22:14 -32.11726 -62.34731 33998 ft 394 kts 294°
2026-05-03 22:14 -32.08905 -62.40225 33998 ft 394 kts 294°
2026-05-03 22:15 -32.06080 -62.45712 33573 ft 389 kts 294°
2026-05-03 22:15 -32.04692 -62.48409 32820 ft 392 kts 294°
2026-05-03 22:15 -32.03273 -62.51167 31972 ft 396 kts 294°
2026-05-03 22:15 -32.01844 -62.53945 31023 ft 403 kts 295°
2026-05-03 22:16 -32.00372 -62.56811 29687 ft 418 kts 295°
2026-05-03 22:16 -31.98870 -62.59731 28366 ft 430 kts 295°
2026-05-03 22:16 -31.97296 -62.62783 27305 ft 434 kts 296°
2026-05-03 22:16 -31.95729 -62.65805 26637 ft 435 kts 296°
2026-05-03 22:17 -31.94171 -62.68805 25902 ft 433 kts 296°
2026-05-03 22:17 -31.92604 -62.71820 25178 ft 430 kts 296°
2026-05-03 22:17 -31.91059 -62.74797 24508 ft 425 kts 297°
2026-05-03 22:17 -31.89523 -62.77755 23862 ft 421 kts 297°
2026-05-03 22:18 -31.88012 -62.80660 23232 ft 417 kts 297°
2026-05-03 22:18 -31.86495 -62.83579 22597 ft 414 kts 297°
2026-05-03 22:18 -31.85009 -62.86437 21951 ft 411 kts 297°
2026-05-03 22:18 -31.83535 -62.89272 21301 ft 408 kts 297°
2026-05-03 22:19 -31.82062 -62.92102 20678 ft 404 kts 297°
2026-05-03 22:19 -31.80598 -62.94914 20043 ft 402 kts 298°
2026-05-03 22:19 -31.79146 -62.97702 19413 ft 398 kts 298°
2026-05-03 22:19 -31.77713 -63.00449 18781 ft 396 kts 298°
2026-05-03 22:20 -31.76286 -63.03181 18156 ft 393 kts 298°
2026-05-03 22:20 -31.74826 -63.05886 17539 ft 391 kts 303°
2026-05-03 22:20 -31.72941 -63.08151 16893 ft 395 kts 320°
2026-05-03 22:20 -31.70532 -63.09724 16253 ft 398 kts 336°
2026-05-03 22:21 -31.67843 -63.10461 15655 ft 401 kts 349°
2026-05-03 22:21 -31.65059 -63.10797 15083 ft 398 kts 352°
2026-05-03 22:21 -31.62306 -63.11065 14504 ft 394 kts 352°
2026-05-03 22:21 -31.59566 -63.11327 13929 ft 391 kts 352°
2026-05-03 22:22 -31.56874 -63.11588 13378 ft 387 kts 352°
2026-05-03 22:22 -31.54212 -63.11860 12833 ft 383 kts 352°
2026-05-03 22:22 -31.51575 -63.12140 12299 ft 379 kts 352°
2026-05-03 22:22 -31.48963 -63.12425 12017 ft 376 kts 352°
2026-05-03 22:23 -31.46368 -63.12717 11994 ft 377 kts 352°
2026-05-03 22:23 -31.43722 -63.13020 11985 ft 378 kts 352°
2026-05-03 22:23 -31.41124 -63.13320 11980 ft 378 kts 352°
2026-05-03 22:23 -31.38488 -63.13528 11977 ft 380 kts 358°
2026-05-03 22:24 -31.35831 -63.13402 11973 ft 381 kts
2026-05-03 22:24 -31.33173 -63.13184 11990 ft 381 kts
2026-05-03 22:24 -31.30555 -63.12955 11990 ft 381 kts
2026-05-03 22:24 -31.27890 -63.12720 11985 ft 381 kts
2026-05-03 22:25 -31.25260 -63.12489 11979 ft 381 kts
2026-05-03 22:25 -31.22614 -63.12255 11978 ft 382 kts
2026-05-03 22:25 -31.19950 -63.12015 11976 ft 382 kts
2026-05-03 22:25 -31.17279 -63.11768 11983 ft 382 kts
2026-05-03 22:26 -31.14624 -63.11523 11992 ft 382 kts
2026-05-03 22:26 -31.11958 -63.11279 11979 ft 382 kts
2026-05-03 22:26 -31.09298 -63.11041 11984 ft 382 kts
2026-05-03 22:26 -31.06664 -63.10809 11981 ft 382 kts
2026-05-03 22:27 -31.03987 -63.10577 12002 ft 382 kts
2026-05-03 22:27 -31.01342 -63.10353 11984 ft 382 kts
2026-05-03 22:27 -30.98692 -63.10128 11980 ft 382 kts
2026-05-03 22:27 -30.96033 -63.09905 11982 ft 382 kts
2026-05-03 22:28 -30.93388 -63.09685 11991 ft 382 kts
2026-05-03 22:28 -30.90719 -63.09469 11996 ft 383 kts
2026-05-03 22:28 -30.88031 -63.09257 11989 ft 383 kts
2026-05-03 22:28 -30.85410 -63.09501 11980 ft 378 kts 344°
2026-05-03 22:29 -30.82904 -63.10426 11985 ft 377 kts 338°
2026-05-03 22:29 -30.80434 -63.11496 11973 ft 377 kts 337°
2026-05-03 22:29 -30.77979 -63.12582 11976 ft 377 kts 336°
2026-05-03 22:29 -30.75530 -63.13664 11989 ft 377 kts 336°
2026-05-03 22:30 -30.73085 -63.14745 11991 ft 377 kts 336°
2026-05-03 22:30 -30.70613 -63.15840 11984 ft 377 kts 336°
2026-05-03 22:30 -30.68193 -63.16985 11976 ft 375 kts 330°
2026-05-03 22:30 -30.66111 -63.18759 11990 ft 370 kts 311°
2026-05-03 22:31 -30.64620 -63.21155 11984 ft 369 kts 299°
2026-05-03 22:31 -30.63363 -63.23758 11977 ft 369 kts 297°
2026-05-03 22:31 -30.62152 -63.26376 11979 ft 369 kts 297°
2026-05-03 22:31 -30.60943 -63.29005 11974 ft 369 kts 296°
2026-05-03 22:32 -30.59733 -63.31632 11982 ft 369 kts 296°
2026-05-03 22:32 -30.58520 -63.34263 11972 ft 370 kts 296°
2026-05-03 22:32 -30.57298 -63.36903 11972 ft 370 kts 296°
2026-05-03 22:32 -30.56080 -63.39515 11987 ft 370 kts 296°
2026-05-03 22:33 -30.54853 -63.42147 11991 ft 370 kts 296°
2026-05-03 22:33 -30.53629 -63.44771 11995 ft 369 kts 296°
2026-05-03 22:33 -30.52413 -63.47378 11989 ft 369 kts 297°
2026-05-03 22:33 -30.51199 -63.49980 11980 ft 369 kts 296°
2026-05-03 22:34 -30.49962 -63.52616 11983 ft 368 kts 296°
2026-05-03 22:34 -30.48923 -63.55292 11981 ft 366 kts 286°
2026-05-03 22:34 -30.48251 -63.58139 11983 ft 367 kts 282°
2026-05-03 22:34 -30.47658 -63.61024 11995 ft 367 kts 282°
2026-05-03 22:35 -30.47080 -63.63905 11989 ft 367 kts 281°
2026-05-03 22:35 -30.46503 -63.66768 11991 ft 367 kts 282°
2026-05-03 22:35 -30.45916 -63.69669 11996 ft 367 kts 282°
2026-05-03 22:35 -30.45334 -63.72544 11993 ft 367 kts 282°
2026-05-03 22:36 -30.44747 -63.75438 11992 ft 367 kts 282°
2026-05-03 22:36 -30.44165 -63.78305 11991 ft 368 kts 282°
2026-05-03 22:36 -30.43577 -63.81186 11993 ft 368 kts 282°
2026-05-03 22:36 -30.42993 -63.84044 11993 ft 368 kts 282°
2026-05-03 22:37 -30.42394 -63.86945 12000 ft 368 kts 282°
2026-05-03 22:37 -30.41800 -63.89828 11999 ft 368 kts 282°
2026-05-03 22:37 -30.41208 -63.92685 11998 ft 368 kts 282°
2026-05-03 22:37 -30.40604 -63.95575 11998 ft 367 kts 282°
2026-05-03 22:38 -30.40114 -63.98478 11996 ft 365 kts 272°
2026-05-03 22:38 -30.40373 -64.01376 11995 ft 364 kts 254°
2026-05-03 22:38 -30.41461 -64.04016 11999 ft 366 kts 237°
2026-05-03 22:38 -30.42972 -64.06387 11999 ft 366 kts 233°
2026-05-03 22:39 -30.44494 -64.08709 11992 ft 366 kts 237°
2026-05-03 22:39 -30.45544 -64.11401 11985 ft 365 kts 255°
2026-05-03 22:39 -30.46009 -64.14278 11991 ft 365 kts 261°
2026-05-03 22:39 -30.46346 -64.17197 11997 ft 365 kts 262°
2026-05-03 22:40 -30.46659 -64.20110 12001 ft 366 kts 262°
2026-05-03 22:40 -30.46970 -64.23026 11997 ft 366 kts 262°
2026-05-03 22:40 -30.47281 -64.25960 11998 ft 365 kts 262°
2026-05-03 22:40 -30.47584 -64.28844 11993 ft 365 kts 262°
2026-05-03 22:41 -30.47890 -64.31767 11991 ft 365 kts 262°
2026-05-03 22:41 -30.48197 -64.34705 11991 ft 365 kts 262°
2026-05-03 22:41 -30.48500 -64.37623 11989 ft 365 kts 262°
2026-05-03 22:41 -30.48839 -64.40541 11985 ft 365 kts 257°
2026-05-03 22:42 -30.49750 -64.43237 11983 ft 365 kts 239°
2026-05-03 22:42 -30.51436 -64.45470 11983 ft 367 kts 220°
2026-05-03 22:42 -30.53663 -64.46909 11984 ft 372 kts 201°
2026-05-03 22:42 -30.56217 -64.47428 11994 ft 379 kts 182°
2026-05-03 22:43 -30.58888 -64.47134 12004 ft 382 kts 174°
2026-05-03 22:43 -30.61493 -64.46629 12001 ft 383 kts 173°
2026-05-03 22:43 -30.64124 -64.46083 12002 ft 383 kts 173°
2026-05-03 22:43 -30.66779 -64.45530 12003 ft 383 kts 172°
2026-05-03 22:44 -30.69371 -64.44991 12005 ft 383 kts 173°
2026-05-03 22:44 -30.72017 -64.44862 11999 ft 377 kts 188°
2026-05-03 22:44 -30.74616 -64.45268 12009 ft 376 kts 192°
2026-05-03 22:44 -30.77211 -64.45780 12017 ft 376 kts 192°
2026-05-03 22:45 -30.79792 -64.46313 12020 ft 376 kts 193°
2026-05-03 22:45 -30.82384 -64.46854 12019 ft 376 kts 193°
2026-05-03 22:45 -30.84968 -64.47392 12021 ft 376 kts 193°
2026-05-03 22:45 -30.87555 -64.47931 12021 ft 377 kts 193°
2026-05-03 22:46 -30.90149 -64.48472 12020 ft 377 kts 193°
2026-05-03 22:46 -30.92706 -64.49062 12013 ft 375 kts 198°
2026-05-03 22:46 -30.95042 -64.50326 12008 ft 368 kts 217°
2026-05-03 22:46 -30.96886 -64.52329 12017 ft 366 kts 230°
2026-05-03 22:47 -30.98539 -64.54638 12015 ft 366 kts 232°
2026-05-03 22:47 -31.00121 -64.56945 12015 ft 366 kts 232°
2026-05-03 22:47 -31.01700 -64.59268 12017 ft 366 kts 233°
2026-05-03 22:47 -31.03273 -64.61587 12020 ft 365 kts 233°
2026-05-03 22:48 -31.04852 -64.63917 12016 ft 366 kts 233°
2026-05-03 22:48 -31.06431 -64.66247 12023 ft 365 kts 233°
2026-05-03 22:48 -31.07984 -64.68541 11852 ft 359 kts 233°
2026-05-03 22:48 -31.09718 -64.70638 11322 ft 362 kts 218°
2026-05-03 22:49 -31.11999 -64.71923 11060 ft 370 kts 198°
2026-05-03 22:49 -31.12843 -64.72129 11049 ft 373 kts 191°
2026-05-03 22:49 -31.16340 -64.72382 11062 ft 377 kts 184°
2026-05-03 22:50 -31.21468 -64.72385 11067 ft 354 kts 176°
2026-05-03 22:50 -31.24575 -64.71423 11082 ft 333 kts 165°
2026-05-03 22:50 -31.26706 -64.70555 11077 ft 316 kts 163°
2026-05-03 22:50 -31.28731 -64.69701 11075 ft 306 kts 163°
2026-05-03 22:51 -31.30737 -64.68850 11071 ft 306 kts 163°
2026-05-03 22:51 -31.32736 -64.67998 10913 ft 301 kts 163°
2026-05-03 22:51 -31.34683 -64.67165 10494 ft 302 kts 163°
2026-05-03 22:51 -31.36663 -64.66328 10141 ft 300 kts 163°
2026-05-03 22:52 -31.38660 -64.65492 10067 ft 302 kts 163°
2026-05-03 22:52 -31.40644 -64.64665 10064 ft 304 kts 163°
2026-05-03 22:52 -31.42616 -64.63845 9952 ft 300 kts 163°
2026-05-03 22:52 -31.44589 -64.63030 9552 ft 300 kts 163°
2026-05-03 22:53 -31.46585 -64.62220 9119 ft 301 kts 163°
2026-05-03 22:53 -31.48548 -64.61443 8719 ft 300 kts 163°
2026-05-03 22:53 -31.50542 -64.60671 8329 ft 299 kts 163°
2026-05-03 22:53 -31.52512 -64.59927 7942 ft 298 kts 163°
2026-05-03 22:54 -31.54494 -64.59224 7548 ft 297 kts 166°
2026-05-03 22:54 -31.56481 -64.58568 7168 ft 296 kts 164°
2026-05-03 22:54 -31.58459 -64.57880 7039 ft 295 kts 163°
2026-05-03 22:54 -31.60444 -64.57188 7034 ft 297 kts 163°
2026-05-03 22:55 -31.62427 -64.56496 7032 ft 298 kts 163°
2026-05-03 22:55 -31.64429 -64.55801 7029 ft 298 kts 163°
2026-05-03 22:55 -31.66295 -64.54810 7018 ft 295 kts 141°
2026-05-03 22:55 -31.67625 -64.53061 6874 ft 286 kts 115°
2026-05-03 22:56 -31.68172 -64.50873 6450 ft 278 kts 88°
2026-05-03 22:56 -31.67978 -64.48624 6098 ft 271 kts 76°
2026-05-03 22:56 -31.67605 -64.46473 6011 ft 272 kts 74°
2026-05-03 22:56 -31.67190 -64.44299 6017 ft 274 kts 73°
2026-05-03 22:57 -31.66770 -64.42114 6016 ft 274 kts 73°
2026-05-03 22:57 -31.66351 -64.39922 6011 ft 274 kts 73°
2026-05-03 22:57 -31.65934 -64.37740 6009 ft 274 kts 73°
2026-05-03 22:57 -31.65514 -64.35549 6006 ft 275 kts 74°
2026-05-03 22:58 -31.65097 -64.33389 6004 ft 274 kts 73°
2026-05-03 22:58 -31.64671 -64.31184 6003 ft 274 kts 73°
2026-05-03 22:58 -31.64252 -64.29004 6003 ft 274 kts 73°
2026-05-03 22:58 -31.63839 -64.26842 6007 ft 274 kts 73°
2026-05-03 22:59 -31.63424 -64.24657 6007 ft 274 kts 73°
2026-05-03 22:59 -31.63006 -64.22456 6004 ft 274 kts 73°
2026-05-03 22:59 -31.62591 -64.20284 5997 ft 275 kts 73°
2026-05-03 22:59 -31.62172 -64.18108 6004 ft 275 kts 73°
2026-05-03 23:00 -31.61747 -64.15908 6015 ft 275 kts 73°
2026-05-03 23:00 -31.61305 -64.13731 6003 ft 274 kts 68°
2026-05-03 23:00 -31.60347 -64.11882 5876 ft 259 kts 36°
2026-05-03 23:00 -31.58776 -64.10976 5537 ft 250 kts 13°
2026-05-03 23:01 -31.57096 -64.10438 5144 ft 250 kts 14°
2026-05-03 23:01 -31.55439 -64.09855 5008 ft 247 kts 16°
2026-05-03 23:01 -31.53809 -64.09229 5007 ft 249 kts 17°
2026-05-03 23:01 -31.52152 -64.08558 5007 ft 249 kts 17°
2026-05-03 23:02 -31.50504 -64.07873 5002 ft 249 kts 18°
2026-05-03 23:02 -31.48864 -64.07185 5006 ft 249 kts 18°
2026-05-03 23:02 -31.47245 -64.06501 5006 ft 249 kts 17°
2026-05-03 23:02 -31.45525 -64.06210 4984 ft 247 kts 349°
2026-05-03 23:03 -31.44016 -64.07143 4994 ft 252 kts 315°
2026-05-03 23:03 -31.43278 -64.08965 4991 ft 255 kts 281°
2026-05-03 23:03 -31.43321 -64.10998 5000 ft 243 kts 271°
2026-05-03 23:03 -31.43415 -64.12904 4994 ft 227 kts 273°
2026-05-03 23:04 -31.43465 -64.14706 4987 ft 212 kts 275°
2026-05-03 23:04 -31.43427 -64.16373 4857 ft 198 kts 290°
2026-05-03 23:04 -31.42755 -64.17552 4775 ft 159 kts 332°
2026-05-03 23:04 -31.41797 -64.18074 4404 ft 152 kts 340°
2026-05-03 23:05 -31.40812 -64.18581 3737 ft 163 kts 339°
2026-05-03 23:05 -31.39778 -64.19180 3069 ft 169 kts 337°
2026-05-03 23:05 -31.38769 -64.19812 2713 ft 158 kts 335°
2026-05-03 23:05 -31.37873 -64.20403 2481 ft 142 kts 334°
2026-05-03 23:06 -31.37000 -64.20786 2194 ft 129 kts 355°
2026-05-03 23:06 -31.36117 -64.20778 1965 ft 128 kts
2026-05-03 23:06 -31.35206 -64.20737 1924 ft 131 kts 358°
2026-05-03 23:06 -31.34298 -64.20782 1879 ft 132 kts 359°
2026-05-03 23:07 -31.33367 -64.20792 1771 ft 132 kts 359°
2026-05-03 23:07 -31.32448 -64.20808 1659 ft 133 kts 358°
2026-05-03 23:07 -31.31584 -64.20818 1613 ft 90 kts 359°
2026-05-03 23:07 -31.31238 -64.20823 1613 ft 25 kts
2026-05-03 23:08 -31.31080 -64.20818 1613 ft 19 kts 356°
2026-05-03 23:08 -31.30979 -64.20830 1613 ft 7 kts 296°
2026-05-03 23:08 -31.31027 -64.20830 1613 ft 12 kts 178°
2026-05-03 23:08 -31.31120 -64.20830 1613 ft 13 kts 180°
2026-05-03 23:09 -31.31223 -64.20830 1613 ft 16 kts 179°
2026-05-03 23:09 -31.31359 -64.20831 1613 ft 22 kts 190°
2026-05-03 23:09 -31.31444 -64.20878 1613 ft 0 kts 226°
2026-05-03 23:09 -31.31445 -64.20879 1613 ft 0 kts 226°
2026-05-03 23:10 -31.31459 -64.20898 1613 ft 8 kts 235°
2026-05-03 23:10 -31.31467 -64.20988 1613 ft 12 kts 270°
2026-05-03 23:10 -31.31516 -64.21049 1613 ft 11 kts 214°
2026-05-03 23:11 -31.31568 -64.21121 1613 ft 12 kts 245°
2026-05-03 23:11 -31.31586 -64.21175 1613 ft 0 kts 251°